This is the latest recevied weather packets stored in our database for station/object KN6CRX. If no packets are shown the sender has not sent any weather packets the latest 10 day(s).
| Time | Temp. | Humidity | Pressure | Rain* | Wind** | Luminosity | Snow |
|---|---|---|---|---|---|---|---|
| 1787581526 | 17.78° C | 71% | 1023.7 hPa | 0 mm | - | 40 W/m² | - |
| 1787581225 | 17.22° C | 72% | 1023.8 hPa | 0 mm | - | 38 W/m² | - |
| 1787580920 | 16.67° C | 72% | 1023.7 hPa | 0 mm | - | 36 W/m² | - |
| 1787580616 | 16.11° C | 75% | 1023.9 hPa | 0 mm | - | 35 W/m² | - |
| 1787580316 | 16.11° C | 76% | 1023.7 hPa | 0 mm | - | 34 W/m² | - |
| 1787580013 | 15.56° C | 78% | 1023.9 hPa | 0 mm | - | 33 W/m² | - |
| 1787579712 | 15.56° C | 79% | 1023.9 hPa | 0 mm | - | 32 W/m² | - |
| 1787579407 | 15.56° C | 78% | 1023.9 hPa | 0 mm | - | 30 W/m² | - |
| 1787579101 | 15.56° C | 78% | 1024 hPa | 0 mm | - | 30 W/m² | - |
| 1787578798 | 15.56° C | 78% | 1023.7 hPa | 0 mm | - | 33 W/m² | - |
| 1787578493 | 15.56° C | 79% | 1023.2 hPa | 0 mm | - | 31 W/m² | - |
| 1787578192 | 15° C | 79% | 1023.5 hPa | 0 mm | - | 26 W/m² | - |
| 1787577888 | 15° C | 79% | 1023.7 hPa | 0 mm | - | 23 W/m² | - |
| 1787577582 | 15° C | 79% | 1023.7 hPa | 0 mm | - | 23 W/m² | - |
| 1787577279 | 15° C | 78% | 1023.5 hPa | 0 mm | - | 26 W/m² | - |
| 1787576976 | 15° C | 77% | 1023.9 hPa | 0 mm | - | 28 W/m² | - |
| 1787576675 | 15° C | 77% | 1023.7 hPa | 0 mm | - | 30 W/m² | - |
| 1787576372 | 14.44° C | 78% | 1023 hPa | 0 mm | - | 19 W/m² | - |
| 1787576067 | 14.44° C | 80% | 1023.1 hPa | 0 mm | - | 10 W/m² | - |
| 1787575761 | 15° C | 79% | 1023.2 hPa | 0 mm | - | 4 W/m² | - |
| 1787575458 | 15° C | 79% | 1023.3 hPa | 0 mm | - | 2 W/m² | - |
| 1787575153 | 15° C | 79% | 1023.3 hPa | 0 mm | - | 1 W/m² | - |
| 1787574852 | 15° C | 79% | 1023.2 hPa | 0 mm | - | 1 W/m² | - |
| 1787574547 | 15° C | 78% | 1023.1 hPa | 0 mm | - | 0 W/m² | - |
| 1787574247 | 15° C | 78% | 1022.9 hPa | 0 mm | - | 0 W/m² | - |
* Rain latest hour (hover to see other rain measurements)
** Current wind speed in m/s (hover to see current wind gust speed)